This is the latest recevied weather packets stored in our database for station/object MMMX. If no packets are shown the sender has not sent any weather packets the latest 10 day(s).
| Time | Temp. | Humidity | Pressure | Rain* | Wind** | Luminosity | Snow |
|---|---|---|---|---|---|---|---|
| 1777603422 | 25° C | 15% | 1020.3 hPa | - | - | - | - |
| 1777602827 | 25° C | 15% | 1020.3 hPa | - | - | - | - |
| 1777602223 | 25° C | 15% | 1020.3 hPa | - | - | - | - |
| 1777601624 | 25° C | 15% | 1020.3 hPa | - | - | - | - |
| 1777601022 | 25° C | 15% | 1020.3 hPa | - | - | - | - |
| 1777586630 | 30.56° C | 8% | 1019 hPa | - | - | - | - |
| 1777586030 | 30.56° C | 8% | 1019.3 hPa | - | - | - | - |
| 1777583624 | 30.56° C | 8% | 1019.6 hPa | - | - | - | - |
| 1777583025 | 30.56° C | 8% | 1019.6 hPa | - | - | - | - |
| 1777582427 | 31.67° C | 8% | 1020.3 hPa | - | - | - | - |
| 1777581224 | 31.67° C | 8% | 1020.3 hPa | - | - | - | - |
| 1777580022 | 30° C | 9% | 1021.3 hPa | - | - | - | - |
| 1777579424 | 30° C | 9% | 1021.3 hPa | - | - | - | - |
| 1777578225 | 28.89° C | 10% | 1022.4 hPa | - | - | - | - |
| 1777577628 | 28.89° C | 10% | 1022.4 hPa | - | - | - | - |
| 1777572224 | 27.78° C | 12% | 1023.4 hPa | - | - | - | - |
| 1777571626 | 26.67° C | 14% | 1024 hPa | - | - | - | - |
| 1777571026 | 26.67° C | 14% | 1024 hPa | - | - | - | - |
| 1777566830 | 25.56° C | 15% | 1024.4 hPa | - | - | - | - |
| 1777566222 | 25.56° C | 15% | 1024.4 hPa | - | - | - | - |
| 1777565626 | 25.56° C | 15% | 1024.4 hPa | - | - | - | - |
| 1777563226 | 20.56° C | - | 1024.4 hPa | - | - | - | - |
| 1777562628 | 20.56° C | - | 1024.4 hPa | - | - | - | - |
| 1777560222 | 17.78° C | 31% | 1024.4 hPa | - | - | - | - |
| 1777559623 | 17.78° C | 31% | 1024.4 hPa | - | - | - | - |
* Rain since midnight (hover to see other rain measurements)
** Current wind speed in m/s (hover to see current wind gust speed)